Preview of NWS' New Version of Forecast
This preview is not operational and should not be used for support decisions.

Regional Weather Roundup (RWR)

Issued by National Weather Service (NWS)

                            
000
ASUS43 KBIS 230110
RWRND 

NORTH DAKOTA REGIONAL WEATHER ROUNDUP
NATIONAL WEATHER SERVICE BISMARCK ND
800 PM CDT FRI MAR 22 2019

NOTE: "FAIR" INDICATES FEW OR NO CLOUDS BELOW 12,000 FEET WITH NO
SIGNIFICANT WEATHER AND/OR OBSTRUCTIONS TO VISIBILITY.


NDZ001>003-009>011-017-230200-
NORTHWEST NORTH DAKOTA
  
CITY           SKY/WX    TMP DP  RH WIND       PRES   REMARKS
WILLISTON      FAIR      47  31  53 S7        29.99F                  
MINOT          CLEAR     39  28  64 SE8       30.06F                  
MINOT AFB      CLEAR     36  30  78 S3        30.05F                  
$$
 
NDZ018>021-031>035-040>046-230200-
SOUTHWEST NORTH DAKOTA
  
CITY           SKY/WX    TMP DP  RH WIND       PRES   REMARKS
BISMARCK       FAIR      33  28  81 E7        30.11F                  
DICKINSON      FAIR      36  29  75 SE14      29.99F                  
GARRISON         N/A     36  30  79 SE10      30.06F                  
HETTINGER ARPT FAIR      35  28  75 SE8       30.04R                  
$$
 
NDZ004>008-012>016-024-026-027-054-230200-
NORTHEAST NORTH DAKOTA
  
CITY           SKY/WX    TMP DP  RH WIND       PRES   REMARKS
GRAND FORKS    FAIR      32  25  75 SE5       30.20S                  
GRND FRKS AFB  FAIR      31  27  83 S6        30.20S                  
DEVILS LAKE    FAIR      28  25  88 SE7       30.16S                  
$$
 
NDZ022-023-025-028>030-036>039-047>053-230200-
SOUTHEAST NORTH DAKOTA
  
CITY           SKY/WX    TMP DP  RH WIND       PRES   REMARKS
FARGO          FAIR      29  23  78 E5        30.20F                  
JAMESTOWN      CLEAR     30  27  88 S6        30.15F                  
$$